User: anonymous   Login
Location: 相模原市立博物館
(35.5593°N, 139.3931°E)
Time: 07:04:47
(UTC+09:00)
Language:

Tiangong - Orbit

View from above orbital plane
View from above orbital plane
View from above satellite
View from above satellite

Ground track
Ground track

The orbit data is extracted from the following two-line orbital elements,

1 48274U 21035A   21341.39979927  .00010647  00000-0  12253-3 0  9996
2 48274  41.4710 307.1461 0004084 181.3233 315.3100 15.61920213 34788
Epoch (UTC): 07 December 2021 09:35:42
Eccentricity: 0.0004084
inclination: 41.4710°
perigee height: 379 km
apogee height: 385 km
right ascension of ascending node: 307.1461°
argument of perigee: 181.3233°
revolutions per day: 15.61920213
mean anomaly at epoch: 315.3100°
orbit number at epoch: 3478

The dashed part of the orbit path shows where the satellite is in the earth's shadow,  

DLR